| time (UTC) | temp C | wind direction | speed KPH | gust KPH | rain 1hr cm | rain 24hr cm | rain mn cm | humidity % | barometer mb |
| 20260502152102 | 28 | 105 | 0.0 | 4.8 | 0.00 | 0.00 | 0.00 | 67 | 998.8 |
| 20260502151608 | 28 | 128 | 1.6 | 4.8 | 0.00 | 0.00 | 0.00 | 66 | 998.7 |
| 20260502151058 | 28 | 138 | 1.6 | 4.8 | 0.00 | 0.00 | 0.00 | 66 | 998.7 |
| 20260502150600 | 28 | 80 | 1.6 | 6.4 | 0.00 | 0.00 | 0.00 | 68 | 998.8 |
| 20260502130557 | 25 | 286 | 0.0 | 0.0 | 0.00 | 0.00 | 0.00 | 83 | 997.2 |
| 20260502130106 | 25 | 286 | 0.0 | 0.0 | 0.00 | 0.00 | 0.00 | 84 | 997.1 |
| 20260502123558 | 24 | 313 | 0.0 | 0.0 | 0.00 | 0.00 | 0.00 | 84 | 996.9 |
| 20260502123100 | 24 | 311 | 0.0 | 0.0 | 0.00 | 0.00 | 0.00 | 84 | 996.8 |
| 20260502122558 | 24 | 296 | 0.0 | 0.0 | 0.00 | 0.00 | 0.00 | 84 | 996.8 |
| 20260502122058 | 24 | 294 | 0.0 | 0.0 | 0.00 | 0.00 | 0.00 | 84 | 996.8 |
| 20260502121559 | 24 | 321 | 0.0 | 0.0 | 0.00 | 0.00 | 0.00 | 84 | 996.8 |
| 20260502121058 | 24 | 348 | 0.0 | 0.0 | 0.00 | 0.00 | 0.00 | 84 | 996.7 |
| 20260502120603 | 24 | 302 | 0.0 | 3.2 | 0.00 | 0.00 | 0.00 | 84 | 996.6 |
| 20260502115600 | 24 | 285 | 0.0 | 0.0 | 0.00 | 0.00 | 0.00 | 84 | 996.5 |
| 20260502115104 | 24 | 306 | 0.0 | 0.0 | 0.00 | 0.00 | 0.00 | 84 | 996.4 |
| 20260502114606 | 24 | 287 | 0.0 | 0.0 | 0.00 | 0.00 | 0.00 | 84 | 996.5 |
| 20260502114100 | 24 | 300 | 0.0 | 0.0 | 0.00 | 0.00 | 0.00 | 84 | 996.5 |
| 20260502113559 | 24 | 298 | 0.0 | 0.0 | 0.00 | 0.00 | 0.00 | 84 | 996.6 |
| 20260502113059 | 24 | 292 | 0.0 | 0.0 | 0.00 | 0.00 | 0.00 | 84 | 996.5 |
| 20260502112601 | 24 | 294 | 0.0 | 0.0 | 0.00 | 0.00 | 0.00 | 84 | 996.6 |
| 20260502112103 | 24 | 292 | 0.0 | 0.0 | 0.00 | 0.00 | 0.00 | 83 | 996.8 |
| 20260502111606 | 24 | 297 | 0.0 | 0.0 | 0.00 | 0.00 | 0.00 | 83 | 996.7 |
| 20260502111059 | 24 | 294 | 0.0 | 0.0 | 0.00 | 0.00 | 0.00 | 83 | 996.8 |
| 20260502110605 | 24 | 297 | 0.0 | 0.0 | 0.00 | 0.00 | 0.00 | 84 | 996.8 |
| 20260502110059 | 24 | 300 | 0.0 | 0.0 | 0.00 | 0.00 | 0.00 | 84 | 996.6 |
| 20260502105558 | 24 | 355 | 0.0 | 0.0 | 0.00 | 0.00 | 0.00 | 83 | 996.7 |
| 20260502105058 | 24 | 292 | 0.0 | 0.0 | 0.00 | 0.00 | 0.00 | 83 | 996.7 |
| 20260502104557 | 25 | 291 | 0.0 | 0.0 | 0.00 | 0.00 | 0.00 | 83 | 996.7 |
| 20260502104057 | 25 | 297 | 0.0 | 0.0 | 0.00 | 0.00 | 0.00 | 83 | 996.7 |
| 20260502103600 | 25 | 315 | 0.0 | 0.0 | 0.00 | 0.00 | 0.00 | 84 | 996.8 |
| 20260502103057 | 25 | 315 | 0.0 | 0.0 | 0.00 | 0.00 | 0.00 | 83 | 996.6 |
| 20260502102701 | 25 | 288 | 0.0 | 0.0 | 0.00 | 0.00 | 0.00 | 83 | 996.6 |
| 20260502102057 | 25 | 288 | 0.0 | 0.0 | 0.00 | 0.00 | 0.00 | 83 | 996.6 |
| 20260502101557 | 25 | 294 | 0.0 | 0.0 | 0.00 | 0.00 | 0.00 | 83 | 996.6 |
| 20260502101101 | 25 | 294 | 0.0 | 0.0 | 0.00 | 0.00 | 0.00 | 83 | 996.6 |
| 20260502100557 | 25 | 294 | 0.0 | 1.6 | 0.00 | 0.00 | 0.00 | 83 | 996.6 |
| 20260502091058 | 25 | 279 | 1.6 | 4.8 | 0.00 | 0.00 | 0.00 | 82 | 996.8 |
| 20260502090558 | 25 | 267 | 1.6 | 4.8 | 0.00 | 0.00 | 0.00 | 82 | 996.9 |
| 20260502090114 | 25 | 281 | 1.6 | 4.8 | 0.00 | 0.00 | 0.00 | 82 | 997.0 |
| 20260502071058 | 26 | 126 | 0.0 | 0.0 | 0.00 | 0.00 | 0.00 | 81 | 997.8 |
| 20260502070557 | 26 | 132 | 0.0 | 0.0 | 0.00 | 0.00 | 0.00 | 81 | 997.9 |
| 20260502070114 | 26 | 292 | 0.0 | 0.0 | 0.00 | 0.00 | 0.00 | 81 | 998.0 |
| 20260502065559 | 26 | 292 | 0.0 | 0.0 | 0.00 | 0.00 | 0.00 | 81 | 997.9 |
| 20260502065058 | 26 | 290 | 0.0 | 0.0 | 0.00 | 0.00 | 0.00 | 81 | 997.8 |
| 20260502064559 | 26 | 286 | 0.0 | 0.0 | 0.00 | 0.00 | 0.00 | 81 | 997.8 |
| 20260502064100 | 26 | 291 | 0.0 | 0.0 | 0.00 | 0.00 | 0.00 | 81 | 997.8 |
| 20260502063559 | 26 | 293 | 0.0 | 3.2 | 0.00 | 0.00 | 0.00 | 81 | 997.8 |
| 20260502063059 | 26 | 299 | 0.0 | 3.2 | 0.00 | 0.00 | 0.00 | 81 | 997.9 |
| 20260502062559 | 26 | 263 | 0.0 | 3.2 | 0.00 | 0.00 | 0.00 | 81 | 998.0 |
| 20260502062059 | 26 | 288 | 1.6 | 3.2 | 0.00 | 0.00 | 0.00 | 81 | 998.1 |
| 20260502061558 | 26 | 281 | 0.0 | 4.8 | 0.00 | 0.00 | 0.00 | 81 | 998.0 |
| 20260502061058 | 26 | 293 | 1.6 | 4.8 | 0.00 | 0.00 | 0.00 | 80 | 998.1 |
| 20260502060602 | 26 | 297 | 0.0 | 4.8 | 0.00 | 0.00 | 0.00 | 80 | 998.1 |
| 20260502060059 | 26 | 281 | 1.6 | 4.8 | 0.00 | 0.00 | 0.00 | 80 | 998.1 |
| 20260502060004 | 26 | 286 | 1.6 | 4.8 | 0.00 | 0.00 | 0.00 | 79 | 998.1 |
| 20260502055501 | 26 | 290 | 0.0 | 3.2 | 0.00 | 0.00 | 0.00 | 79 | 998.1 |
| 20260502055101 | 26 | 282 | 0.0 | 3.2 | 0.00 | 0.00 | 0.00 | 78 | 998.1 |
| 20260502054500 | 27 | 271 | 0.0 | 3.2 | 0.00 | 0.00 | 0.00 | 78 | 998.0 |
| 20260502054000 | 27 | 265 | 0.0 | 3.2 | 0.00 | 0.00 | 0.00 | 78 | 997.9 |
| 20260502053603 | 27 | 265 | 0.0 | 3.2 | 0.00 | 0.00 | 0.00 | 77 | 997.9 |
| 20260502053502 | 27 | 265 | 0.0 | 3.2 | 0.00 | 0.00 | 0.00 | 77 | 997.9 |
| 20260502053132 | 27 | 301 | 0.0 | 3.2 | 0.00 | 0.00 | 0.00 | 76 | 997.8 |
| 20260502053002 | 27 | 276 | 0.0 | 3.2 | 0.00 | 0.00 | 0.00 | 77 | 997.8 |
| 20260502052600 | 27 | 256 | 0.0 | 3.2 | 0.00 | 0.00 | 0.00 | 76 | 997.8 |
| 20260502052001 | 27 | 65 | 0.0 | 1.6 | 0.00 | 0.00 | 0.00 | 76 | 997.7 |
| 20260502051502 | 27 | 36 | 0.0 | 0.0 | 0.00 | 0.00 | 0.00 | 76 | 997.7 |
| 20260502051001 | 27 | 69 | 0.0 | 0.0 | 0.00 | 0.00 | 0.00 | 76 | 997.6 |
| 20260502050605 | 27 | 79 | 0.0 | 1.6 | 0.00 | 0.00 | 0.00 | 76 | 997.6 |
| 20260502050001 | 27 | 80 | 0.0 | 3.2 | 0.00 | 0.00 | 0.00 | 75 | 997.5 |
| 20260502045602 | 27 | 71 | 0.0 | 3.2 | 0.00 | 0.00 | 0.00 | 75 | 997.5 |
| 20260502045103 | 27 | 52 | 0.0 | 3.2 | 0.00 | 0.00 | 0.00 | 75 | 997.4 |
| 20260502044600 | 27 | 321 | 0.0 | 4.8 | 0.00 | 0.00 | 0.00 | 75 | 997.4 |
| 20260502044501 | 27 | 320 | 0.0 | 4.8 | 0.00 | 0.00 | 0.00 | 75 | 997.3 |
| 20260502044059 | 27 | 267 | 0.0 | 4.8 | 0.00 | 0.00 | 0.00 | 75 | 997.2 |
| 20260502043600 | 27 | 48 | 1.6 | 4.8 | 0.00 | 0.00 | 0.00 | 75 | 997.2 |
| 20260502043113 | 27 | 41 | 0.0 | 3.2 | 0.00 | 0.00 | 0.00 | 75 | 997.1 |
| 20260502042600 | 27 | 38 | 0.0 | 12.9 | 0.00 | 0.00 | 0.00 | 75 | 997.1 |
| 20260502042101 | 27 | 38 | 0.0 | 14.5 | 0.00 | 0.00 | 0.00 | 75 | 997.0 |
| 20260502041634 | 27 | 267 | 3.2 | 14.5 | 0.00 | 0.00 | 0.00 | 75 | 996.9 |
| 20260502041059 | 27 | 188 | 0.0 | 6.4 | 0.00 | 0.00 | 0.00 | 75 | 996.8 |
| 20260502040559 | 27 | 328 | 1.6 | 9.7 | 0.00 | 0.00 | 0.00 | 75 | 996.7 |
| 20260502040100 | 27 | 264 | 3.2 | 9.7 | 0.00 | 0.00 | 0.00 | 75 | 996.6 |
| 20260502035600 | 27 | 278 | 1.6 | 8.0 | 0.00 | 0.00 | 0.00 | 75 | 996.5 |
| 20260502035100 | 27 | 267 | 0.0 | 4.8 | 0.00 | 0.00 | 0.00 | 74 | 996.4 |
| 20260502034559 | 27 | 291 | 0.0 | 4.8 | 0.00 | 0.00 | 0.00 | 74 | 996.4 |
| 20260502034100 | 27 | 173 | 1.6 | 4.8 | 0.00 | 0.00 | 0.00 | 74 | 996.2 |
| 20260502033604 | 27 | 235 | 1.6 | 9.7 | 0.00 | 0.00 | 0.00 | 74 | 996.2 |
| 20260502033109 | 27 | 131 | 1.6 | 9.7 | 0.00 | 0.00 | 0.00 | 74 | 996.0 |
| 20260502032600 | 27 | 244 | 1.6 | 11.3 | 0.00 | 0.00 | 0.00 | 74 | 995.9 |
| 20260502032501 | 27 | 293 | 0.0 | 11.3 | 0.00 | 0.00 | 0.00 | 73 | 995.9 |
| 20260502032059 | 27 | 227 | 3.2 | 12.9 | 0.00 | 0.00 | 0.00 | 73 | 995.9 |
| 20260502031600 | 27 | 250 | 3.2 | 16.1 | 0.00 | 0.00 | 0.00 | 74 | 995.8 |
| 20260502031100 | 27 | 254 | 9.7 | 16.1 | 0.00 | 0.00 | 0.00 | 74 | 995.9 |
| 20260502030601 | 27 | 332 | 1.6 | 6.4 | 0.00 | 0.00 | 0.00 | 74 | 995.7 |
| 20260502030100 | 27 | 245 | 0.0 | 12.9 | 0.00 | 0.00 | 0.00 | 74 | 995.8 |
| 20260502030001 | 27 | 53 | 1.6 | 12.9 | 0.00 | 0.00 | 0.00 | 74 | 995.7 |
| 20260502025559 | 27 | 228 | 1.6 | 17.7 | 0.00 | 0.00 | 0.00 | 75 | 995.6 |
| 20260502025059 | 27 | 28 | 1.6 | 19.3 | 0.00 | 0.00 | 0.00 | 74 | 995.6 |
| 20260502024600 | 27 | 309 | 1.6 | 19.3 | 0.00 | 0.00 | 0.00 | 74 | 995.5 |
| 20260502024100 | 27 | 232 | 4.8 | 16.1 | 0.00 | 0.00 | 0.00 | 74 | 995.3 |
| 20260502023600 | 27 | 275 | 1.6 | 16.1 | 0.00 | 0.00 | 0.00 | 74 | 995.3 |
| 20260502023100 | 27 | 287 | 8.0 | 16.1 | 0.00 | 0.00 | 0.00 | 74 | 995.3 |
| 20260502022559 | 27 | 273 | 3.2 | 12.9 | 0.00 | 0.00 | 0.00 | 74 | 995.2 |
| 20260502022059 | 27 | 88 | 4.8 | 12.9 | 0.00 | 0.00 | 0.00 | 74 | 995.0 |
| 20260502021559 | 27 | 282 | 4.8 | 17.7 | 0.00 | 0.00 | 0.00 | 73 | 995.0 |
| 20260502021101 | 27 | 42 | 6.4 | 17.7 | 0.00 | 0.00 | 0.00 | 73 | 994.9 |
| 20260502020602 | 27 | 257 | 6.4 | 16.1 | 0.00 | 0.00 | 0.00 | 73 | 994.7 |
| 20260502020109 | 27 | 271 | 1.6 | 16.1 | 0.00 | 0.00 | 0.00 | 74 | 994.8 |
| 20260502020002 | 27 | 264 | 4.8 | 16.1 | 0.00 | 0.00 | 0.00 | 73 | 994.8 |
| 20260502015600 | 27 | 312 | 3.2 | 16.1 | 0.00 | 0.00 | 0.00 | 73 | 994.6 |
| 20260502015100 | 27 | 314 | 6.4 | 17.7 | 0.00 | 0.00 | 0.00 | 73 | 994.5 |
| 20260502014600 | 27 | 266 | 4.8 | 16.1 | 0.00 | 0.00 | 0.00 | 73 | 994.5 |
| 20260502014059 | 27 | 321 | 3.2 | 16.1 | 0.00 | 0.00 | 0.00 | 72 | 994.3 |
| 20260502013559 | 27 | 268 | 6.4 | 17.7 | 0.00 | 0.00 | 0.00 | 72 | 994.4 |
| 20260502013104 | 27 | 252 | 4.8 | 17.7 | 0.00 | 0.00 | 0.00 | 73 | 994.3 |
| 20260502012603 | 27 | 263 | 1.6 | 12.9 | 0.00 | 0.00 | 0.00 | 73 | 994.5 |
| 20260502012100 | 27 | 227 | 3.2 | 12.9 | 0.00 | 0.00 | 0.00 | 73 | 994.3 |
| 20260502011609 | 27 | 267 | 3.2 | 17.7 | 0.00 | 0.00 | 0.00 | 73 | 994.2 |
| 20260502011059 | 27 | 315 | 6.4 | 17.7 | 0.00 | 0.00 | 0.00 | 73 | 994.2 |
| 20260502010559 | 27 | 294 | 1.6 | 12.9 | 0.00 | 0.00 | 0.00 | 73 | 994.1 |
| 20260502010001 | 27 | 355 | 6.4 | 12.9 | 0.00 | 0.00 | 0.00 | 73 | 994.1 |
| 20260502005559 | 27 | 300 | 0.0 | 12.9 | 0.00 | 0.00 | 0.00 | 73 | 994.0 |
| 20260502005100 | 27 | 287 | 4.8 | 30.6 | 0.00 | 0.00 | 0.00 | 73 | 994.0 |
| 20260502004602 | 27 | 202 | 9.7 | 30.6 | 0.00 | 0.00 | 0.00 | 73 | 994.0 |
| 20260502004059 | 28 | 247 | 8.0 | 24.1 | 0.00 | 0.00 | 0.00 | 72 | 994.0 |
| 20260502003601 | 28 | 298 | 4.8 | 24.1 | 0.00 | 0.00 | 0.00 | 73 | 994.0 |
| 20260502003059 | 28 | 267 | 3.2 | 19.3 | 0.00 | 0.00 | 0.00 | 73 | 993.8 |
| 20260502002600 | 28 | 209 | 9.7 | 19.3 | 0.00 | 0.00 | 0.00 | 73 | 993.8 |
| 20260502002100 | 28 | 248 | 8.0 | 19.3 | 0.00 | 0.00 | 0.00 | 73 | 993.6 |
| 20260502001603 | 28 | 232 | 9.7 | 24.1 | 0.00 | 0.00 | 0.00 | 73 | 993.8 |
| 20260502001100 | 28 | 286 | 14.5 | 24.1 | 0.00 | 0.00 | 0.00 | 73 | 993.4 |
| 20260502000602 | 28 | 213 | 4.8 | 20.9 | 0.00 | 0.00 | 0.00 | 72 | 993.5 |
| 20260502000059 | 28 | 187 | 9.7 | 20.9 | 0.00 | 0.00 | 0.00 | 71 | 993.6 |
| 20260502000002 | 28 | 250 | 6.4 | 20.9 | 0.00 | 0.00 | 0.00 | 71 | 993.6 |
| 20260501235601 | 28 | 252 | 8.0 | 22.5 | 0.00 | 0.00 | 0.00 | 71 | 993.5 |
| 20260501235059 | 28 | 238 | 8.0 | 22.5 | 0.00 | 0.00 | 0.00 | 71 | 993.6 |
| 20260501234600 | 28 | 297 | 9.7 | 20.9 | 0.00 | 0.00 | 0.00 | 72 | 993.8 |
| 20260501234100 | 28 | 226 | 4.8 | 22.5 | 0.00 | 0.00 | 0.00 | 71 | 993.7 |
| 20260501233600 | 28 | 275 | 4.8 | 25.7 | 0.00 | 0.00 | 0.00 | 71 | 993.7 |
| 20260501233109 | 28 | 265 | 8.0 | 25.7 | 0.00 | 0.00 | 0.00 | 70 | 993.7 |
| 20260501232600 | 28 | 300 | 8.0 | 24.1 | 0.00 | 0.00 | 0.00 | 69 | 993.5 |
| 20260501232059 | 28 | 317 | 4.8 | 24.1 | 0.00 | 0.00 | 0.00 | 70 | 993.5 |
| 20260501231630 | 28 | 267 | 8.0 | 22.5 | 0.00 | 0.00 | 0.00 | 71 | 993.6 |
| 20260501231059 | 28 | 303 | 14.5 | 24.1 | 0.00 | 0.00 | 0.00 | 69 | 993.7 |
| 20260501230600 | 28 | 246 | 9.7 | 24.1 | 0.00 | 0.00 | 0.00 | 69 | 993.7 |
| 20260501230100 | 28 | 235 | 11.3 | 25.7 | 0.00 | 0.00 | 0.00 | 70 | 993.7 |
| 20260501225559 | 28 | 240 | 11.3 | 27.4 | 0.00 | 0.00 | 0.00 | 70 | 993.7 |
| 20260501225100 | 29 | 219 | 6.4 | 25.7 | 0.00 | 0.00 | 0.00 | 70 | 993.8 |
| 20260501224559 | 28 | 261 | 9.7 | 25.7 | 0.00 | 0.00 | 0.00 | 70 | 993.8 |
| 20260501224059 | 29 | 289 | 9.7 | 25.7 | 0.00 | 0.00 | 0.00 | 70 | 993.7 |
| 20260501223600 | 29 | 259 | 11.3 | 24.1 | 0.00 | 0.00 | 0.00 | 70 | 993.6 |
| 20260501223134 | 29 | 243 | 8.0 | 33.8 | 0.00 | 0.00 | 0.00 | 69 | 993.6 |
| 20260501222559 | 28 | 272 | 8.0 | 33.8 | 0.00 | 0.00 | 0.00 | 70 | 993.7 |
| 20260501222059 | 29 | 303 | 11.3 | 20.9 | 0.00 | 0.00 | 0.00 | 70 | 993.7 |
| 20260501221559 | 28 | 244 | 14.5 | 32.2 | 0.00 | 0.00 | 0.00 | 70 | 993.6 |
| 20260501221101 | 28 | 238 | 14.5 | 32.2 | 0.00 | 0.00 | 0.00 | 70 | 993.6 |
| 20260501220559 | 29 | 264 | 16.1 | 29.0 | 0.00 | 0.00 | 0.00 | 70 | 993.5 |
| 20260501220101 | 29 | 200 | 11.3 | 29.0 | 0.00 | 0.00 | 0.00 | 69 | 993.4 |
| 20260501215559 | 29 | 279 | 14.5 | 29.0 | 0.00 | 0.00 | 0.00 | 70 | 993.5 |
| 20260501215101 | 29 | 226 | 6.4 | 27.4 | 0.00 | 0.00 | 0.00 | 70 | 993.6 |
| 20260501214559 | 29 | 284 | 11.3 | 27.4 | 0.00 | 0.00 | 0.00 | 70 | 993.6 |
| 20260501214058 | 29 | 265 | 11.3 | 27.4 | 0.00 | 0.00 | 0.00 | 71 | 993.7 |
| 20260501213558 | 29 | 329 | 11.3 | 29.0 | 0.00 | 0.00 | 0.00 | 71 | 993.7 |
| 20260501213101 | 29 | 302 | 11.3 | 29.0 | 0.00 | 0.00 | 0.00 | 71 | 993.9 |
| 20260501212559 | 29 | 198 | 8.0 | 24.1 | 0.00 | 0.00 | 0.00 | 70 | 993.9 |
| 20260501212058 | 29 | 264 | 4.8 | 27.4 | 0.00 | 0.00 | 0.00 | 68 | 993.9 |
| 20260501211558 | 29 | 232 | 11.3 | 27.4 | 0.00 | 0.00 | 0.00 | 68 | 993.9 |
| 20260501211057 | 30 | 9 | 6.4 | 20.9 | 0.00 | 0.00 | 0.00 | 67 | 994.1 |
| 20260501210602 | 30 | 200 | 8.0 | 24.1 | 0.00 | 0.00 | 0.00 | 68 | 994.1 |
| 20260501210100 | 29 | 222 | 4.8 | 24.1 | 0.00 | 0.00 | 0.00 | 70 | 994.2 |
| 20260501205558 | 29 | 294 | 6.4 | 25.7 | 0.00 | 0.00 | 0.00 | 70 | 994.3 |
| 20260501205059 | 29 | 205 | 3.2 | 29.0 | 0.00 | 0.00 | 0.00 | 69 | 994.4 |
| 20260501204631 | 29 | 325 | 11.3 | 29.0 | 0.00 | 0.00 | 0.00 | 70 | 994.6 |
| 20260501204058 | 29 | 223 | 8.0 | 33.8 | 0.00 | 0.00 | 0.00 | 72 | 994.8 |
| 20260501203558 | 29 | 260 | 14.5 | 33.8 | 0.00 | 0.00 | 0.00 | 72 | 994.8 |
| 20260501203059 | 29 | 286 | 9.7 | 29.0 | 0.00 | 0.00 | 0.00 | 72 | 995.0 |
| 20260501202558 | 29 | 234 | 6.4 | 24.1 | 0.00 | 0.00 | 0.00 | 71 | 994.9 |
| 20260501202059 | 28 | 241 | 11.3 | 32.2 | 0.00 | 0.00 | 0.00 | 72 | 995.0 |
| 20260501201608 | 28 | 319 | 9.7 | 32.2 | 0.00 | 0.00 | 0.00 | 73 | 995.1 |
| 20260501201058 | 29 | 230 | 14.5 | 29.0 | 0.00 | 0.00 | 0.00 | 72 | 995.2 |
| 20260501200600 | 29 | 213 | 9.7 | 24.1 | 0.00 | 0.00 | 0.00 | 70 | 995.2 |
| 20260501200058 | 29 | 211 | 9.7 | 24.1 | 0.00 | 0.00 | 0.00 | 71 | 995.2 |
| 20260501195558 | 29 | 260 | 6.4 | 22.5 | 0.00 | 0.00 | 0.00 | 71 | 995.3 |
| 20260501195100 | 29 | 251 | 9.7 | 22.5 | 0.00 | 0.00 | 0.00 | 72 | 995.5 |
| 20260501194600 | 29 | 263 | 9.7 | 25.7 | 0.00 | 0.00 | 0.00 | 73 | 995.4 |
| 20260501194059 | 28 | 242 | 6.4 | 27.4 | 0.00 | 0.00 | 0.00 | 74 | 995.4 |
| 20260501193602 | 28 | 218 | 14.5 | 32.2 | 0.00 | 0.00 | 0.00 | 75 | 995.4 |
| 20260501193103 | 28 | 218 | 14.5 | 32.2 | 0.00 | 0.00 | 0.00 | 75 | 995.6 |
| 20260501192601 | 28 | 220 | 17.7 | 32.2 | 0.00 | 0.00 | 0.00 | 74 | 995.6 |
| 20260501192058 | 28 | 256 | 16.1 | 32.2 | 0.00 | 0.00 | 0.00 | 74 | 995.8 |
| 20260501191602 | 29 | 285 | 12.9 | 25.7 | 0.00 | 0.00 | 0.00 | 73 | 995.8 |
| 20260501191059 | 28 | 269 | 11.3 | 32.2 | 0.00 | 0.00 | 0.00 | 73 | 995.9 |
| 20260501190601 | 28 | 252 | 11.3 | 32.2 | 0.00 | 0.00 | 0.00 | 73 | 995.9 |
| 20260501190059 | 28 | 254 | 12.9 | 27.4 | 0.00 | 0.00 | 0.00 | 74 | 996.3 |
| 20260501190004 | 28 | 276 | 11.3 | 27.4 | 0.00 | 0.00 | 0.00 | 74 | 996.3 |
| 20260501185600 | 28 | 221 | 14.5 | 32.2 | 0.00 | 0.00 | 0.00 | 73 | 996.5 |
| 20260501185100 | 28 | 237 | 16.1 | 29.0 | 0.00 | 0.00 | 0.00 | 72 | 996.4 |
| 20260501184606 | 28 | 236 | 14.5 | 33.8 | 0.00 | 0.00 | 0.00 | 73 | 996.6 |
| 20260501184100 | 28 | 292 | 19.3 | 33.8 | 0.00 | 0.00 | 0.00 | 72 | 996.6 |
| 20260501183603 | 28 | 153 | 16.1 | 32.2 | 0.00 | 0.00 | 0.00 | 70 | 996.7 |
| 20260501183104 | 29 | 228 | 11.3 | 25.7 | 0.00 | 0.00 | 0.00 | 71 | 996.7 |
| 20260501182559 | 28 | 213 | 16.1 | 25.7 | 0.00 | 0.00 | 0.00 | 69 | 996.7 |
| 20260501182059 | 28 | 302 | 12.9 | 27.4 | 0.00 | 0.00 | 0.00 | 71 | 996.8 |
| 20260501181603 | 28 | 244 | 16.1 | 25.7 | 0.00 | 0.00 | 0.00 | 71 | 996.9 |
| 20260501181102 | 28 | 288 | 12.9 | 24.1 | 0.00 | 0.00 | 0.00 | 72 | 997.1 |
| 20260501180600 | 28 | 218 | 12.9 | 25.7 | 0.00 | 0.00 | 0.00 | 71 | 997.1 |
| 20260501180104 | 28 | 244 | 14.5 | 25.7 | 0.00 | 0.00 | 0.00 | 72 | 997.1 |
| 20260501175602 | 28 | 292 | 14.5 | 25.7 | 0.00 | 0.00 | 0.00 | 72 | 997.2 |
| 20260501175057 | 28 | 302 | 12.9 | 25.7 | 0.00 | 0.00 | 0.00 | 71 | 997.3 |
| 20260501174610 | 28 | 241 | 14.5 | 24.1 | 0.00 | 0.00 | 0.00 | 71 | 997.3 |
| 20260501174058 | 28 | 314 | 9.7 | 24.1 | 0.00 | 0.00 | 0.00 | 71 | 997.3 |
| 20260501173559 | 28 | 238 | 14.5 | 25.7 | 0.00 | 0.00 | 0.00 | 70 | 997.5 |
| 20260501173058 | 29 | 275 | 9.7 | 19.3 | 0.00 | 0.00 | 0.00 | 68 | 997.6 |
| 20260501172559 | 29 | 229 | 9.7 | 22.5 | 0.00 | 0.00 | 0.00 | 70 | 997.5 |
| 20260501172059 | 28 | 224 | 12.9 | 22.5 | 0.00 | 0.00 | 0.00 | 70 | 997.7 |
| 20260501171559 | 28 | 253 | 11.3 | 22.5 | 0.00 | 0.00 | 0.00 | 70 | 997.7 |
| 20260501171059 | 28 | 262 | 9.7 | 22.5 | 0.00 | 0.00 | 0.00 | 71 | 997.7 |
| 20260501170558 | 28 | 219 | 14.5 | 22.5 | 0.00 | 0.00 | 0.00 | 74 | 997.8 |
| 20260501165559 | 28 | 234 | 14.5 | 24.1 | 0.00 | 0.00 | 0.00 | 72 | 997.9 |
| 20260501165102 | 28 | 197 | 9.7 | 19.3 | 0.00 | 0.00 | 0.00 | 73 | 997.9 |
| 20260501164558 | 28 | 196 | 11.3 | 17.7 | 0.00 | 0.00 | 0.00 | 71 | 997.9 |
| 20260501164059 | 28 | 279 | 9.7 | 16.1 | 0.00 | 0.00 | 0.00 | 71 | 997.9 |
| 20260501163558 | 28 | 275 | 6.4 | 22.5 | 0.00 | 0.00 | 0.00 | 71 | 998.1 |
| 20260501163100 | 28 | 289 | 8.0 | 22.5 | 0.00 | 0.00 | 0.00 | 72 | 998.2 |
| 20260501162558 | 28 | 226 | 8.0 | 16.1 | 0.00 | 0.00 | 0.00 | 72 | 998.1 |
| 20260501162059 | 28 | 281 | 6.4 | 17.7 | 0.00 | 0.00 | 0.00 | 72 | 998.1 |
| 20260501161608 | 28 | 315 | 6.4 | 17.7 | 0.00 | 0.00 | 0.00 | 73 | 998.2 |
| 20260501161058 | 28 | 291 | 6.4 | 19.3 | 0.00 | 0.00 | 0.00 | 73 | 998.1 |
| 20260501160558 | 28 | 227 | 8.0 | 16.1 | 0.00 | 0.00 | 0.00 | 71 | 998.0 |
| 20260501160111 | 28 | 246 | 8.0 | 12.9 | 0.00 | 0.00 | 0.00 | 72 | 998.0 |
| 20260501155559 | 28 | 259 | 3.2 | 12.9 | 0.00 | 0.00 | 0.00 | 73 | 998.1 |
| 20260501155104 | 28 | 222 | 6.4 | 14.5 | 0.00 | 0.00 | 0.00 | 73 | 998.0 |
| 20260501154602 | 28 | 225 | 6.4 | 14.5 | 0.00 | 0.00 | 0.00 | 73 | 998.3 |
| 20260501154103 | 28 | 263 | 6.4 | 11.3 | 0.00 | 0.00 | 0.00 | 73 | 998.2 |
| 20260501153559 | 28 | 225 | 1.6 | 11.3 | 0.00 | 0.00 | 0.00 | 74 | 998.0 |
| 20260501153058 | 28 | 221 | 1.6 | 9.7 | 0.00 | 0.00 | 0.00 | 74 | 998.1 |
| 20260501152600 | 28 | 213 | 3.2 | 11.3 | 0.00 | 0.00 | 0.00 | 74 | 998.0 |